星链-2446 (STARLINK-2446 )

导读 | 星芒AI

STARLINK-2446 是 SpaceX 星链(Starlink)卫星互联网项目中的第2446颗卫星,属于低轨卫星通信网络的一部分。该卫星旨在为全球用户提供高速、低延迟的互联网服务,尤其在偏远和网络覆盖不足的地区。它采用先进的推进和通信技术,具备自主避障能力,以确保运行安全。作为星链计划的组成部分,STARLINK-2446 贡献于构建更广泛的全球宽带网络,推动数字连接的普及。

基本信息
目录编号:
47844
目录名称:
STARLINK-2446
国际标识:
2021-018BK
轨道中心:
EARTH
卫星名称:
星链-2446
卫星全名:
星链-2446 (STARLINK-2446 )
卫星状态:
在轨 (已飞行1694 天)
发射日期:
2021-03-11 UTC
国别 :
美国 (US)
星等 :
--
轨道信息
数据来源 国际轨道数据
星历时间: 2025-10-30T03:04:19+0800
20小时前
查看轨道信息
半长轴: 6925.325km
偏心率: 0.0001252
轨道倾角: 53.054°
近地点辐角 82.076°
升交点赤经 119.227°
平近点角 278.037°
近地点: 546.322km
远地点: 548.058km
周期: 95.592分钟
每日圈数: 15.064077
详细信息
固有亮度:
5
最大亮度:
2.5
卫星平台:
Starlink V1.0
覆盖范围:
全球
运营商:
太空探索技术公司
运营商所在国:
美国
制造商(研发单位):
太空探索技术公司
制造商所在国:
美国
使用方式:
暂无
卫星简介
星链(Starlink)计划是由太空探索技术公司(SpaceX)提出的一个巨型低轨卫星互联网星座项目,计划在2019年至2024年间在太空搭建由约1.2万颗卫星组成的“星链”网络,其中1584颗将部署在地球上空550千米处的近地轨道,并从2020年开始工作。该卫星仍在工作。
2D轨道图
3D轨道图
轨道高度分析图
轨道倾角分析图
轨道综合分析图
查看轨道综合分析图